Temp
19 19 19 19 20 20 20 20 20 20 21 21 21 21 21 21 22 21 21 21 21 21 21 20 19 19 19 18 18 17 12 13 15 13 16 16 15 15 15 14 13 13 12 13 11
18 18 18 19 19 19 20 20 20 20 21 21 21 21 21 21 21 21 21 21 21 21 21 20 20 19 19 18 17 14 12 15 15 14 15 16 16 15 13 11 12 11 12 12 11
18 18 18 19 19 19 19 20 20 20 21 21 21 21 21 21 21 21 21 21 21 21 20 20 20 19 18 18 16 14 15 15 16 16 16 16 15 15 13 10 14 14 13 11 10
18 18 18 18 18 19 19 19 20 20 20 21 21 21 21 20 20 21 21 21 21 20 20 20 19 18 15 16 16 16 16 16 16 16 16 15 16 14 13 16 16 15 14 12 11
17 18 18 18 18 19 19 19 20 20 20 20 20 20 20 20 21 21 21 21 21 20 20 20 19 17 16 15 16 15 15 15 16 16 16 15 14 14 14 15 15 15 13 12 11
17 17 18 18 18 19 19 19 20 20 20 20 20 20 19 18 21 20 20 20 20 20 20 19 18 17 16 15 15 14 14 14 15 15 15 13 13 13 14 15 14 13 12 11 10
17 17 18 18 18 19 19 19 20 20 20 20 19 19 18 20 20 19 19 20 20 20 19 19 18 18 16 15 15 14 14 12 13 14 13 13 12 10 14 14 13 12 11 10 10
17 17 17 18 18 18 19 19 19 20 20 20 19 18 19 19 19 19 19 19 19 19 19 18 18 17 16 15 13 12 11 13 14 12 14 14 12 13 14 13 11 11 10 9 9
16 16 17 17 18 18 19 19 19 20 20 19 18 18 18 18 18 18 18 18 18 18 18 17 17 15 15 12 11 10 13 12 12 12 13 12 12 13 13 10 10 10 10 9 8
16 16 16 17 17 18 18 19 19 19 18 18 17 17 18 18 18 18 17 17 17 17 17 16 15 11 9 11 14 14 12 11 11 13 11 11 10 12 13 10 9 11 9 8 8
15 15 15 16 16 16 18 18 19 18 17 18 18 17 17 18 17 17 17 17 16 16 14 14 12 12 13 11 14 13 12 10 9 11 12 10 10 12 13 9 6 7 7 7 8
15 15 15 15 15 15 16 15 15 14 13 18 18 18 17 16 16 16 16 16 15 12 12 12 11 12 12 11 12 12 11 9 9 9 9 9 9 9 11 11 9 8 7 7 6
14 14 14 14 14 15 15 14 14 13 12 16 16 15 15 15 14 14 15 15 13 11 10 11 14 10 12 11 12 10 9 10 10 8 7 6 9 7 10 10 11 10 10 8 8
14 14 14 13 14 14 14 14 14 13 8 12 13 13 13 13 13 13 14 15 13 11 9 11 11 11 11 11 10 11 9 9 9 9 8 8 12 10 10 11 8 9 9 9 7
12 13 12 12 13 13 13 13 13 14 9 14 12 12 12 12 12 12 13 14 12 11 11 13 10 10 11 10 9 11 10 10 9 7 5 6 6 7 7 9 12 11 11 10 9
8 11 11 11 11 12 12 13 13 10 10 14 11 11 11 12 12 11 12 13 12 11 11 10 10 10 10 8 9 8 10 6 3 4 4 8 8 7 7 8 9 8 11 11 9
6 6 9 9 9 10 11 12 9 8 12 14 12 9 11 10 10 10 10 9 10 11 10 11 9 9 9 10 8 8 8 8 7 4 9 5 4 12 9 8 8 8 10 10 9
6 5 5 7 8 9 10 8 7 9 10 11 11 10 11 10 10 9 9 9 8 10 8 11 15 8 7 10 9 6 8 8 7 6 13 4 6 10 7 10 8 7 8 9 8
6 5 5 6 7 7 9 5 7 8 10 11 11 11 10 11 11 9 7 7 9 9 13 9 9 7 7 7 8 7 7 7 6 -5 0 8 6 7 6 6 4 4 6 8 7
6 5 5 6 6 6 4 9 7 8 10 10 12 11 10 10 9 8 8 8 10 8 12 12 12 6 5 7 5 6 5 7 4 6 3 9 8 11 12 10 7 3 3 8 6
6 5 6 7 5 5 6 5 7 12 12 10 9 11 10 10 9 7 10 10 9 8 9 10 11 9 5 5 5 5 5 5 5 4 5 4 12 8 10 9 8 4 8 10 8
6 5 6 4 5 6 5 4 9 8 11 9 9 9 11 9 8 8 9 13 11 7 8 8 8 9 9 4 3 5 6 7 7 6 -1 2 10 7 8 6 6 4 9 9 8
6 6 5 4 5 5 3 3 6 6 8 9 8 8 9 9 10 8 12 11 10 8 7 7 7 7 7 5 4 4 4 5 5 3 5 5 11 6 6 5 5 4 7 8 8
6 4 3 4 5 7 6 5 5 7 8 8 8 8 8 9 11 11 9 9 8 9 8 10 7 8 12 11 6 4 4 5 7 8 9 8 10 12 11 11 11 9 8 9 8
6 5 4 4 4 4 5 6 7 6 6 7 7 8 10 10 10 10 10 7 5 6 6 7 9 8 10 11 5 7 8 6 5 7 8 10 10 11 11 12 12 12 10 6 5
7 5 4 5 5 4 5 6 6 7 5 5 7 8 8 9 10 10 10 8 9 1 3 2 7 7 7 9 5 6 8 8 6 7 7 8 9 12 12 12 11 11 10 6 5
6 7 6 5 4 5 5 5 6 6 7 8 8 7 8 8 10 11 11 9 8 7 1 0 3 1 7 7 4 4 7 9 10 10 8 7 9 11 10 10 9 9 7 8 6
Height
1555 1554 1552 1551 1549 1547 1545 1543 1541 1539 1537 1534 1533 1531 1531 1530 1530 1530 1529 1529 1527 1525 1523 1522 1520 1519 1519 1520 1522 1522 1532 1539 1532 1537 1528 1526 1528 1529 1529 1529 1531 1530 1529 1530 1533
1555 1553 1552 1550 1549 1547 1545 1542 1541 1539 1537 1535 1533 1532 1531 1530 1530 1530 1531 1529 1527 1526 1524 1522 1520 1519 1519 1520 1522 1523 1534 1529 1526 1526 1525 1524 1525 1526 1529 1529 1529 1527 1526 1528 1530
1554 1553 1551 1550 1548 1546 1544 1542 1540 1538 1536 1534 1533 1531 1531 1530 1530 1528 1529 1528 1527 1526 1524 1521 1520 1519 1519 1520 1524 1525 1529 1525 1524 1524 1524 1523 1524 1524 1525 1527 1520 1518 1521 1525 1527
1554 1552 1551 1549 1547 1545 1543 1541 1539 1537 1535 1533 1531 1530 1530 1530 1533 1526 1527 1527 1526 1526 1524 1522 1520 1519 1522 1522 1523 1527 1524 1525 1525 1524 1524 1524 1522 1520 1518 1514 1515 1517 1520 1521 1523
1552 1551 1549 1547 1546 1544 1542 1540 1538 1535 1533 1532 1530 1528 1528 1528 1525 1524 1524 1524 1525 1525 1523 1521 1521 1521 1523 1523 1521 1524 1525 1524 1524 1524 1523 1523 1521 1519 1511 1512 1514 1514 1515 1517 1520
1550 1549 1547 1545 1543 1542 1540 1538 1536 1534 1532 1530 1528 1526 1526 1526 1521 1521 1522 1522 1523 1523 1522 1521 1520 1521 1522 1524 1523 1524 1523 1521 1521 1522 1521 1521 1521 1520 1507 1507 1509 1510 1512 1515 1517
1548 1547 1545 1543 1541 1539 1538 1536 1533 1531 1529 1528 1527 1525 1523 1521 1519 1519 1520 1520 1521 1521 1520 1520 1520 1520 1522 1524 1523 1523 1524 1519 1518 1519 1520 1519 1520 1513 1505 1506 1506 1506 1508 1510 1512
1546 1544 1542 1541 1539 1537 1535 1533 1530 1528 1526 1524 1523 1523 1521 1517 1517 1517 1518 1518 1518 1519 1519 1518 1519 1519 1521 1523 1523 1524 1527 1529 1516 1517 1517 1519 1519 1504 1502 1502 1501 1503 1503 1504 1506
1542 1541 1540 1538 1536 1534 1532 1529 1527 1524 1522 1522 1522 1520 1518 1515 1515 1515 1516 1517 1517 1517 1517 1517 1518 1519 1521 1526 1532 1532 1533 1531 1524 1514 1516 1518 1512 1500 1500 1500 1498 1497 1496 1497 1500
1539 1538 1537 1535 1534 1532 1529 1526 1523 1520 1519 1519 1519 1522 1514 1512 1512 1513 1514 1515 1516 1516 1516 1517 1517 1521 1525 1529 1538 1530 1532 1531 1528 1515 1515 1515 1507 1494 1496 1495 1490 1488 1489 1490 1491
1536 1535 1534 1533 1531 1529 1527 1525 1524 1520 1517 1515 1514 1511 1510 1510 1510 1510 1511 1514 1515 1516 1517 1516 1521 1523 1516 1518 1517 1520 1525 1528 1520 1513 1513 1507 1504 1491 1486 1487 1484 1479 1480 1480 1481
1531 1531 1532 1531 1530 1529 1527 1525 1525 1525 1517 1512 1509 1506 1506 1507 1508 1508 1511 1514 1513 1516 1515 1521 1520 1510 1511 1514 1518 1521 1525 1525 1516 1513 1515 1506 1496 1489 1479 1471 1470 1470 1468 1469 1475
1526 1527 1527 1528 1527 1527 1525 1524 1523 1522 1520 1506 1503 1502 1500 1502 1503 1502 1507 1508 1511 1516 1516 1519 1507 1506 1509 1514 1519 1522 1524 1518 1516 1515 1511 1509 1486 1484 1467 1461 1460 1458 1460 1463 1464
1521 1521 1522 1524 1527 1523 1523 1523 1522 1521 1527 1507 1500 1498 1499 1500 1500 1499 1501 1506 1509 1511 1515 1513 1504 1506 1509 1511 1515 1519 1509 1512 1514 1517 1520 1508 1479 1478 1469 1459 1454 1450 1452 1452 1455
1516 1517 1518 1520 1521 1522 1523 1522 1523 1521 1549 1500 1497 1497 1497 1500 1501 1501 1501 1503 1505 1507 1510 1500 1504 1506 1508 1504 1507 1508 1508 1510 1512 1518 1525 1514 1518 1475 1472 1466 1448 1438 1440 1444 1445
1511 1511 1513 1516 1517 1518 1520 1522 1524 1534 1535 1497 1494 1495 1496 1496 1497 1498 1500 1503 1503 1504 1505 1502 1500 1500 1498 1502 1504 1507 1508 1517 1525 1528 1531 1488 1494 1478 1470 1455 1445 1438 1438 1440 1443
1508 1507 1509 1511 1514 1516 1518 1521 1533 1536 1500 1492 1490 1493 1493 1495 1494 1494 1498 1501 1504 1509 1509 1498 1498 1496 1497 1502 1507 1508 1514 1527 1527 1537 1497 1499 1503 1443 1446 1438 1434 1433 1433 1435 1437
1505 1504 1504 1506 1509 1513 1517 1521 1529 1504 1496 1487 1491 1494 1494 1491 1491 1494 1498 1500 1495 1496 1507 1501 1488 1493 1492 1491 1496 1508 1508 1519 1530 1526 1471 1500 1478 1435 1430 1425 1426 1428 1428 1430 1431
1501 1500 1498 1502 1506 1510 1516 1522 1496 1494 1487 1486 1489 1492 1492 1487 1488 1493 1495 1491 1484 1486 1492 1503 1495 1490 1491 1491 1493 1505 1507 1501 1511 1559 1536 1465 1445 1433 1424 1421 1422 1421 1423 1422 1423
1495 1495 1491 1496 1503 1506 1511 1485 1481 1474 1474 1478 1482 1479 1487 1485 1489 1490 1486 1475 1475 1471 1471 1475 1486 1490 1493 1493 1497 1497 1497 1508 1518 1518 1527 1448 1437 1421 1415 1414 1415 1416 1416 1415 1417
1487 1488 1481 1487 1497 1502 1490 1481 1474 1470 1469 1475 1475 1472 1471 1473 1475 1480 1466 1464 1463 1466 1469 1475 1480 1484 1493 1490 1487 1500 1498 1499 1499 1506 1504 1496 1405 1404 1404 1406 1406 1404 1407 1407 1409
1476 1479 1475 1478 1488 1481 1469 1465 1463 1462 1467 1466 1464 1462 1463 1468 1469 1468 1463 1448 1447 1454 1468 1469 1478 1478 1468 1478 1480 1476 1473 1475 1484 1485 1509 1502 1393 1394 1395 1396 1400 1400 1400 1401 1402
1461 1465 1468 1470 1469 1463 1461 1459 1458 1458 1456 1456 1458 1456 1457 1461 1467 1456 1445 1443 1448 1449 1456 1463 1474 1482 1467 1478 1478 1475 1469 1465 1466 1471 1466 1481 1380 1386 1391 1392 1390 1392 1393 1394 1394
1451 1454 1458 1454 1447 1448 1455 1451 1451 1445 1448 1448 1450 1451 1454 1450 1445 1440 1442 1441 1442 1443 1443 1443 1456 1453 1439 1433 1446 1462 1455 1452 1450 1442 1430 1410 1398 1353 1389 1385 1378 1383 1384 1383 1385
1437 1428 1432 1436 1435 1440 1444 1436 1434 1441 1438 1441 1442 1438 1442 1446 1440 1438 1435 1442 1442 1440 1442 1444 1440 1437 1426 1417 1442 1438 1428 1434 1442 1418 1420 1381 1395 1348 1379 1375 1368 1373 1371 1372 1374
1422 1425 1422 1418 1423 1426 1427 1419 1422 1430 1437 1436 1430 1434 1434 1433 1428 1426 1432 1434 1432 1444 1443 1442 1432 1432 1430 1415 1433 1436 1399 1418 1414 1394 1405 1389 1373 1337 1365 1366 1361 1361 1363 1361 1362
1413 1406 1405 1405 1410 1414 1408 1406 1407 1420 1418 1419 1421 1425 1423 1415 1420 1418 1423 1422 1421 1426 1436 1442 1438 1448 1421 1423 1438 1436 1382 1391 1386 1373 1385 1387 1335 1341 1353 1352 1346 1350 1351 1350 1351
Wind_Speed
7 8 10 11 12 14 15 16 17 18 16 15 9 5 7 6 5 3 6 8 9 10 9 8 8 5 2 3 3 2 4 2 5 6 4 6 4 6 5 8 14 13 8 8 24
8 9 9 10 11 12 13 14 15 16 16 13 10 3 0 2 2 2 4 7 9 9 10 9 10 5 3 3 2 4 3 5 3 5 4 6 5 9 7 7 10 11 16 13 27
9 10 10 11 11 11 13 14 15 14 14 13 9 6 3 3 4 4 2 4 6 8 13 9 12 5 4 4 5 1 2 2 3 4 6 4 4 7 8 5 17 24 22 22 28
12 12 13 13 13 13 13 14 15 16 15 13 10 5 4 4 3 7 5 0 4 6 11 8 10 4 3 3 4 2 1 1 3 4 4 3 3 5 18 15 10 16 21 27 29
14 15 15 15 15 16 15 16 16 16 16 14 11 6 4 6 7 8 9 5 2 3 7 9 11 3 2 1 4 1 3 3 3 6 9 6 9 10 16 23 22 14 24 29 29
15 16 17 17 17 17 16 16 16 17 17 16 13 8 7 7 7 9 10 7 5 2 4 7 5 4 3 1 2 2 6 9 6 8 9 4 4 4 7 16 18 18 27 30 29
16 17 18 19 19 19 18 17 18 17 17 17 15 10 11 13 9 10 11 10 7 4 2 3 5 2 2 0 3 2 5 7 1 3 4 3 7 10 16 12 16 21 28 31 31
18 18 19 20 21 21 20 18 18 18 18 16 14 9 8 9 10 10 10 10 9 5 3 2 3 3 2 1 4 4 4 5 2 5 1 4 9 8 11 18 22 26 31 33 33
19 19 19 20 21 22 21 19 18 18 16 13 9 7 7 7 10 12 12 10 9 6 4 2 0 2 2 4 5 6 3 3 9 5 2 6 9 6 9 19 25 30 34 37 36
22 21 20 20 20 22 20 19 17 15 12 10 10 4 10 6 7 10 12 9 7 5 3 3 2 3 3 3 4 5 4 5 7 2 3 5 16 15 17 23 32 36 38 40 41
25 24 21 21 20 20 20 16 7 5 7 8 3 6 5 8 8 9 11 10 7 4 5 1 2 7 10 8 3 3 4 7 5 5 3 9 13 19 19 25 23 34 37 43 46
25 24 22 21 19 17 14 7 5 6 11 15 23 27 27 15 7 12 12 7 7 7 5 3 10 7 4 4 4 3 3 8 7 1 6 10 17 13 19 22 27 29 37 43 42
25 23 20 18 18 16 10 6 6 8 4 9 13 12 9 15 9 8 14 8 5 5 7 7 3 6 5 4 4 4 5 5 7 5 4 8 10 6 9 15 23 33 36 35 44
24 22 19 15 14 9 6 4 5 7 3 7 3 4 5 5 4 8 15 7 3 9 8 7 3 7 4 6 8 4 6 3 4 5 4 3 12 4 8 12 7 20 26 34 37
23 22 17 14 7 6 5 4 5 2 5 5 3 5 7 5 2 4 10 8 5 5 6 7 8 5 5 8 8 7 2 2 1 2 4 4 5 6 2 8 20 12 24 29 34
21 20 17 13 13 12 9 4 1 4 8 4 4 5 4 4 3 5 5 4 2 4 3 6 1 5 7 3 3 4 3 5 4 2 2 7 9 4 6 10 8 7 15 17 24
22 19 16 14 8 9 8 5 2 5 3 5 5 4 2 6 5 7 7 6 7 4 6 1 5 2 3 4 2 4 5 4 5 2 9 4 3 13 7 12 12 9 17 19 21
19 16 17 15 14 8 10 3 8 7 7 3 3 2 5 6 4 5 4 4 7 2 3 4 12 8 5 7 7 6 8 6 8 4 16 3 9 8 13 18 16 15 17 17 22
19 19 19 20 15 14 9 6 9 8 7 7 2 3 5 4 4 5 8 6 8 12 9 6 8 2 2 2 2 5 5 2 2 2 3 6 8 7 10 12 9 16 15 23 25
22 19 23 17 18 15 3 18 9 10 8 5 13 11 9 7 8 7 8 5 6 16 4 4 6 0 1 2 3 4 4 4 2 4 7 11 13 13 11 11 12 8 16 21 24
25 9 9 17 21 14 10 9 7 15 13 8 8 7 10 9 9 8 8 4 7 5 7 4 4 2 4 10 12 3 4 0 2 5 6 7 12 5 9 11 11 10 19 23 24
27 4 17 31 13 9 14 7 11 7 22 9 5 9 11 10 9 9 12 14 23 12 11 8 5 8 15 2 3 3 8 10 6 7 3 2 25 2 7 8 7 12 20 22 23
18 19 22 39 7 13 3 4 11 7 12 13 11 8 6 7 8 10 17 7 18 11 12 10 4 5 7 2 2 7 7 6 2 1 11 7 26 3 6 8 12 14 16 19 24
14 5 8 32 23 14 14 9 10 14 21 7 6 11 4 14 19 11 6 3 15 12 4 20 8 11 20 10 6 6 11 15 20 16 18 31 31 44 19 22 26 27 32 33 31
15 8 14 7 17 19 11 6 21 10 12 23 11 23 18 11 19 21 17 3 2 5 3 9 16 13 25 28 5 7 19 16 20 30 22 36 30 42 26 28 28 29 29 26 31
21 7 12 10 18 23 26 25 27 14 9 9 20 6 22 27 25 24 16 8 13 3 8 5 12 10 22 23 9 10 35 20 26 33 24 32 39 41 29 44 36 40 33 28 31
41 33 27 13 12 11 22 30 27 21 21 30 19 18 22 25 33 38 28 14 12 11 11 8 5 4 24 9 7 10 30 31 30 32 26 27 46 38 31 29 29 32 27 31 29
Wind_Direction
4 4 4 6 6 8 8 8 10 11 17 23 23 62 77 76 66 61 58 60 49 41 28 15 11 15 85 69 48 71 66 182 196 149 233 186 160 169 184 164 184 202 220 218 188
345 348 349 351 354 354 356 357 359 3 4 13 13 1 85 79 92 71 65 52 44 34 14 6 6 41 94 68 48 73 99 214 187 185 203 189 194 185 170 186 216 224 226 214 186
326 329 331 333 336 340 341 343 345 349 354 357 2 350 268 251 261 209 178 53 41 26 11 20 9 29 70 41 24 91 166 211 237 205 188 197 233 199 171 219 216 217 205 189 187
322 323 324 324 325 327 328 328 331 334 339 343 344 337 286 248 232 197 200 250 25 16 13 19 7 39 58 36 16 356 72 250 276 216 198 219 234 231 217 232 235 237 218 197 197
313 317 319 320 321 321 322 322 321 321 327 327 327 319 269 250 248 224 213 227 286 353 8 23 28 52 62 333 15 40 325 318 269 254 245 247 241 244 254 249 249 244 208 203 201
303 308 311 314 316 317 319 319 316 314 315 317 312 297 254 241 248 227 219 227 235 275 7 28 30 59 104 335 115 292 281 277 260 240 246 230 250 227 260 242 238 228 210 206 207
293 298 303 307 310 312 316 317 314 310 309 309 305 288 262 263 252 231 226 227 225 242 314 18 28 67 58 18 333 310 323 323 184 203 247 222 285 238 256 236 222 214 210 208 210
286 292 298 303 306 309 312 315 311 308 306 299 296 280 266 258 241 227 229 224 223 238 248 307 12 105 83 324 4 38 54 13 249 155 245 141 267 269 256 229 215 214 212 213 213
279 285 291 298 303 305 310 312 309 305 299 294 275 245 261 268 234 230 227 225 221 234 233 241 254 104 98 76 4 5 257 253 313 199 142 175 270 252 251 222 226 222 220 218 216
279 282 289 294 301 305 310 313 310 297 287 275 244 247 244 231 227 224 220 222 226 218 213 199 127 75 51 95 247 248 259 241 235 231 190 226 262 269 245 233 231 237 230 225 221
282 285 289 293 299 305 312 332 317 297 261 234 243 243 273 236 228 221 219 223 228 211 185 150 117 205 215 196 195 188 215 239 246 244 225 250 250 267 266 237 233 237 231 232 230
278 283 290 295 301 306 315 342 324 300 304 272 256 251 256 244 251 230 217 208 186 204 128 44 237 207 115 139 161 190 251 263 281 274 197 268 256 257 261 254 238 239 233 234 229
273 278 283 289 295 299 301 306 308 322 274 281 253 257 239 228 232 226 199 197 183 185 194 178 219 112 142 155 177 221 202 242 242 329 246 303 267 225 269 256 256 247 248 246 239
267 269 273 281 291 284 276 279 312 338 39 270 228 230 199 170 244 200 189 185 196 209 163 234 215 172 172 210 154 238 217 247 284 15 257 12 293 235 243 283 249 254 237 242 236
266 265 266 263 244 263 261 291 320 17 309 260 199 179 171 180 149 193 189 196 201 192 138 240 169 171 191 212 165 228 140 150 109 217 6 230 266 250 354 270 267 265 251 248 246
288 267 256 251 248 249 247 259 243 47 244 284 171 177 145 202 195 151 173 187 134 155 261 250 282 181 207 84 153 135 85 60 56 69 269 227 195 209 178 215 256 259 259 255 251
310 285 250 233 234 230 216 167 29 186 295 239 214 179 196 192 213 175 168 178 179 153 225 264 214 176 156 108 41 91 67 316 321 341 246 139 206 253 237 233 231 257 277 279 260
295 284 264 229 218 197 180 71 210 214 216 39 98 77 197 158 244 175 147 223 236 109 118 208 273 180 176 196 183 173 169 171 238 235 284 221 242 260 231 255 260 259 265 272 251
271 277 263 238 205 194 193 220 202 180 201 166 104 183 228 234 198 156 208 208 213 172 192 182 265 91 56 90 108 182 189 170 51 120 325 232 270 288 257 264 260 253 256 253 246
252 264 258 241 204 190 182 236 208 196 158 160 205 185 203 207 174 186 182 193 221 194 160 238 291 115 130 100 33 176 169 83 9 277 267 263 275 251 229 244 247 242 236 252 245
228 233 221 213 189 191 223 223 222 222 197 176 212 237 210 190 197 205 217 225 206 156 161 150 150 245 133 204 172 143 224 79 163 162 208 291 274 210 207 222 232 230 241 244 240
207 224 187 178 176 209 228 191 205 217 223 258 211 227 222 197 222 222 212 216 189 150 161 197 166 238 237 337 343 292 205 172 201 229 240 151 268 224 192 197 216 238 245 245 242
205 208 185 180 212 217 236 273 233 186 201 222 229 190 196 215 245 202 241 203 177 157 170 177 211 266 280 62 354 223 203 227 286 175 208 197 259 185 195 215 238 235 243 245 248
205 177 185 200 215 219 219 230 233 228 237 233 230 202 167 237 229 256 222 193 202 200 249 169 187 201 240 228 132 180 216 215 222 247 244 234 260 268 261 276 278 269 266 262 251
219 208 187 192 217 218 199 235 236 226 210 209 245 231 228 250 245 240 255 264 213 215 153 175 234 224 245 258 190 211 245 208 212 234 237 258 248 257 263 264 269 279 274 253 246
228 205 185 218 209 211 210 231 238 241 171 218 232 219 227 238 235 256 240 209 226 5 186 189 244 252 259 257 188 245 254 241 225 242 244 257 268 265 272 277 277 275 272 253 248
234 248 220 200 215 207 217 223 236 231 241 236 228 233 238 238 242 251 269 264 231 222 193 172 182 187 252 256 121 263 247 240 252 250 233 246 253 275 273 265 265 268 256 253 250